www.pogodaiklimat.ru

Погода и климат >> Архив погоды >> Россия >> Ростовская область >> Ростов-на-Дону


АРХИВ ПОГОДЫ в Ростове-на-Дону

Время (UTC), дата Ветер
(напр.,м/с)
 
Видим.   Явления Облачность Т
(С)
Тd
(С)
f
(%)
Тe
(С)
Тes
(С)
Комфортность P
(гПа)
Po
(гПа)
Тmin
(С)
Tmax
(С)
R
(мм)
R24
(мм)
S
(см)
06 12.09 н/о ясно +21.2 +6.1 37 1027.4 1017.6
09 12.09 н/о ясно +25.9 +4.4 25 1026.3 1016.7
12 12.09 н/о ясно +27.0 +3.4 22 1025.0 1015.4
15 12.09 н/о ясно +23.5 +2.3 25 1024.5 1014.8 +27.4
18 12.09 н/о ясно +19.0 +3.3 35 1025.1 1015.2
21 12.09 н/о ясно +17.0 +1.6 35 1024.3 1014.4
00 13.09 н/о ясно +15.6 +2.9 42 1024.1 1014.1
03 13.09 н/о ясно +14.0 +3.5 49 1024.3 1014.3 +13.4
06 13.09 н/о ясно +20.7 +5.5 37 1025.0 1015.2
09 13.09 н/о ясно +26.1 +4.7 25 1024.0 1014.4
12 13.09 н/о ясно +27.4 +2.8 20 1022.5 1012.9
15 13.09 н/о ясно +24.0 +3.5 26 1021.9 1012.2 +27.8
18 13.09 н/о ясно +17.0 +4.7 44 1022.6 1012.7
21 13.09 н/о 4/0
[Ac trans]
+15.5 +5.3 51 1022.4 1012.5
00 14.09 н/о ясно +14.1 +5.7 57 1022.1 1012.1
03 14.09 н/о ясно +13.4 +7.2 66 1021.8 1011.8 +12.7
06 14.09 н/о ясно +21.7 +8.1 42 1021.7 1012.0
09 14.09 н/о 1/0
[Ac trans]
+25.9 +4.8 26 1020.0 1010.4
12 14.09 н/о 1/0
[Ac trans]
+26.9 +1.8 20 1018.4 1008.8
15 14.09 н/о 3/0
[Ac trans Ci fib]
+22.5 +7.0 37 1017.4 1007.7 +27.7
18 14.09 н/о н/о +18.1 +5.7 44 1017.6 1007.8
21 14.09 н/о 5/0
[Ci fib]
+16.0 +5.7 50 1017.8 1007.9
00 15.09 н/о 5/0
[Ci fib]
+17.7 +4.9 43 1017.2 1007.4
03 15.09 н/о 9/0
[Ac trans]
+16.6 +7.5 55 1018.3 1008.4 +15.0
06 15.09 н/о 8/3 1000 м
[Cu hum Ac trans]
+17.8 +7.2 50 1020.2 1010.4
09 15.09 н/о ясно +21.3 +2.4 29 1020.5 1010.8
12 15.09 н/о ясно +23.0 -0.3 21 1019.9 1010.2
15 15.09 н/о ясно +19.9 0.0 26 1020.0 1010.2 +23.6
18 15.09 н/о ясно +13.6 +1.9 45 1021.1 1011.1
21 15.09 н/о ясно +10.5 +3.4 61 1020.9 1010.8
00 16.09 н/о ясно +10.3 +3.0 61 1020.0 1009.9
03 16.09 н/о ясно +9.0 +5.6 79 1019.5 1009.4 +8.6
06 16.09 н/о ясно +18.8 +3.1 35 1018.0 1008.2
09 16.09 н/о ясно +23.4 +1.0 23 1015.6 1006.0
12 16.09 н/о ясно +23.8 +1.1 22 1013.5 1003.9
15 16.09 н/о ясно +21.0 0.0 25 1012.2 1002.5 +24.8
18 16.09 н/о ясно +18.0 +7.3 50 1012.1 1002.3
21 16.09 н/о ясно +16.2 +8.0 58 1011.7 1001.9
00 17.09 н/о ясно +14.3 +8.8 69 1010.8 1000.9
03 17.09 н/о ясно +14.1 +10.7 80 1010.4 1000.5 +13.8
06 17.09 н/о 3/3 1000 м
[Cu hum]
+20.5 +15.4 73 1009.5 999.9
09 17.09 н/о 3/0
[Ac trans Ci fib]
+24.1 +13.4 51 1009.0 999.5
12 17.09 н/о 6/0
[Ac trans Ci fib]
+25.0 +10.6 40 1007.7 998.2
15 17.09 н/о 9/4 600 м
[Cb calv Ac trans]
+18.1 +11.7 66 1008.8 999.1 +25.3
18 17.09 н/о в посл. час ливневой дождь 10/5 600 м
[Cb calv Ac und]
+15.6 +14.1 91 1009.5 999.7
21 17.09 н/о слаб. ливневой дождь {гроза} 10/8 600 м
[Cb calv Ac und]
+15.9 +14.8 93 1008.8 999.0
00 18.09 н/о {гроза, ливн. осадки} 8/0
[Ac trans]
+13.6 +12.7 94 1009.3 999.4
03 18.09 н/о 9/6 600 м
[Cb calv Ac trans]
+13.5 +13.3 99 1009.7 999.8 +13.2 17
06 18.09 н/о дымка 5/0
[Ac trans]
+17.2 +14.4 84 1009.4 999.7
09 18.09 н/о в посл. час ливневой дождь 8/4 600 м
[Cb calv Ac trans]
+22.1 +13.5 58 1007.4 997.8
12 18.09 н/о {ливн. осадки} 10/6 600 м
[Cb calv Ac und]
+23.8 +14.4 56 1004.6 995.1
15 18.09 н/о {гроза, ливн. осадки} 6/3 600 м
[Cb calv Ac trans]
+18.4 +16.6 89 1004.9 995.4 +24.2 2
18 18.09 н/о н/о
21 18.09 н/о {ливн. осадки} 5/0
[Ac trans]
+12.6 +4.4 57 1011.7 1002.1
00 19.09 н/о
03 19.09 н/о ясно +9.2 +3.1 66 1016.9 1006.8 +9.2 1

 

Местоположение метеостанции Ростов-на-Дону (Ростовская область, Россия): широта 47.27 долгота 39.82 высота над уровнем моря 75 м.

В архиве по умолчанию представлена погода в Ростове-на-Дону за последнюю неделю. Архивные данные за месяц целиком и за предыдущие месяцы, начиная с января 2011 года, Вы можете получить, выбрав интересующий диапазон дат из раскрывающегося списка и нажав кнопку "Ввод!".


*Определитесь, кто Вы:
робот инопланетянин человек

Внимание! Время в таблицах - всемирное. Для получения местного времени необходимо прибавить поправку, которая равна 3 ч.

Смотрите также архив погоды в соседних городах и на ближайших метеорологических станциях:

Погода в Аэропорту Платов (Ростовская область, Россия) (26 км)
Погода в Шахтах (Ростовская область, Россия) (59 км)
Погода в Зерноград (Ростовская область, Россия) (60 км)
Погода в Таганроге (Ростовская область, Россия) (70 км)
Погода в Матвеевом Кургане (Ростовская область, Россия) (78 км)
Погода в Семикаракорске (Ростовская область, Россия) (81 км)
Погода в Маргаритово (Ростовская область, Россия) (81 км)
Погода в Кущевской (Краснодарский край, Россия) (84 км)
Погода в Константиновске (Ростовская область, Россия) (102 км)
Погода в Староминская (Краснодарский край, Россия) (102 км)

Пояснения к столбцам:

Ветер - указаны скорость ветра в м/с - средняя за 10 мин, порывы в срок и между сроками (в фигурных скобках) и направление, откуда дует ветер: С - северный, СВ - северо-восточный, В - восточный, ЮВ - юго-восточный, Ю - южный, ЮЗ - юго-западный, З - западный, СЗ - северо-западный.
Видимость - горизонтальная дальность видимости в метрах или километрах. При видимости от 1 до 10 км при отсутствии осадков обычно наблюдается дымка, при ухудшении видимости до 1 км и менее - туман. В сухую погоду видимость может ухудшаться дымом, пылью или мглою.
Явления - указаны атмосферные явления, наблюдавшиеся в срок или в последний час перед сроком; фигурными скобками обозначены явления, наблюдавшиеся между сроками (за 1-3 часа до срока); квадратными скобками обозначены град или гололедные отложения с указанием их диаметра в мм.
Облачность - указаны через наклонную черту общая и нижняя облачность в баллах и высота нижней границы облаков в метрах; квадратными скобками обозначены формы облаков: Ci - перистые, Cs - перисто-слоистые, Cc - перисто-кучевые, Ac - высококучевые, As - высокослоистые, Sc - слоисто-кучевые, Ns - слоисто-дождевые, Cu - кучевые, Cb - кучево-дождевые. Подробнее классификацию облаков см. в Атласе облаков (PDF).
T - Температура воздуха - температура, измеренная на высоте 2 м над землей.
Td - Температура точки росы - температура, при понижении до которой содержащийся в воздухе водяной пар достигнет насыщения.
f - Относительная влажность воздуха - влажноcть воздуха, измеренная на высоте 2 м над землей.
Te - Эффективная температура - температура, которую ощущает одетый по сезону человек в тени. Характеристика душности погоды. При расчете учитывается влияние влажности воздуха и скорости ветра на теплоощущения человека.
Tes - Эффективная температура на солнце - температура, которую ощущает человек, с поправкой на солнечный нагрев. Характеристика знойности погоды. Зависит от высоты солнца над горизонтом, облачности и скорости ветра. Ночью, в пасмурную погоду, а также при ветре 12 м/с и более поправка равна нулю.
P - Атмосферное давление - приведенное к уровню моря атмосферное давление.
Po - Атмосферное давление - измеренное на уровне метеостанции атмосферное давление.
Tmin - Минимальная температура - минимум температуры воздуха на высоте 2 м над землей.
Tmax - Максимальная температура - максимум температуры воздуха на высоте 2 м над землей.
R - Количество осадков - Количество выпавших осадков за период времени, мм. При наведении курсора мыши на число - период времени, за который выпало указанное количество осадков.
R24 - Количество осадков - Количество выпавших осадков за 24 часа, мм.
S - Снежный покров - Высота снежного покрова, см. При наведении курсора мыши на число - состояние снежного покрова и степень покрытия местности в баллах.